Zurück zum Katalog

STARLINK-36329

AktivKommunikationSSO
NORAD 67739·PAYLOAD·🇺🇸 United States

Gestartet Feb 11, 2026 von Vandenberg Space Force Base

Loading…

Nächste Überflüge (nächste 24 Stunden)

TLE

AktuellSource: CelesTrak SupGP

Epoche: Sep 14, 2026, 21:05 UTC

1 67739C 26026U   26257.87895833 -.00017885  00000+0 -55526-3 0  2574
2 67739  97.2845 309.8648 0001078 101.6160 269.2341 15.33445769    13

Verfolge STARLINK-36329 in Echtzeit mit AllMySat

Download on the App Store